Flag for U.S.A. Weather past 2 weeks in West Palm Beach, Florida, U.S.A.

Now
87 °F

Broken clouds.


Feels Like: 93 °F
Forecast: 74 / 85 °F
Wind: 3 mph from North

Location: Palm Beach International Airport

Current Time: Sep 21, 2014 at 2:13:08 PM

Latest Report: Sep 21, 2014 at 1:53 PM


Visibility: 10 mi

Pressure: 29.97 "Hg

Humidity: 59%

Dew point: 71 °F

Location of West Palm BeachLocation

Historic Weather in West Palm Beach — Graph

°F

West Palm Beach temperature yesterday

Maximum temperature yesterday: 88 °F (at 1:53 PM)
Minimum temperature yesterday: 74 °F (at 3:53 AM)
Average temperature yesterday: 78 °F

Past Weeks' High & Low Weather Summary

 TemperatureHumidityPressure
High89 °F (Sep 8, 1:53 PM)100% (Sep 6, 4:53 PM)30.15 "Hg (Sep 6, 4:53 PM)
Low73 °F (Sep 14, 3:53 AM)53% (Sep 9, 12:53 PM)29.86 "Hg (Sep 18, 5:53 PM)
Average80 °F80%29.99 "Hg
* Reported Sep 6 12:53 PM — Sep 21 12:53 PM, West Palm Beach, Weather by CustomWeather, © 2014

Note: Actual official high and low records may vary slightly from our data, if they occured in-between our weather recording intervals... More about our weather records

Advertising

West Palm Beach weather history for previous 24 hours

 ConditionsComfort  
Time TempWeatherWind HumidityBarometerVisibility
12:53 PM
Sep 21
85 °FBroken clouds.No wind63%29.99 "Hg10 mi
11:53 AM84 °FPartly sunny.6 mph72%30.00 "Hg10 mi
10:53 AM82 °FBroken clouds.5 mph77%30.01 "Hg10 mi
9:53 AM79 °FPartly sunny.5 mph84%30.01 "Hg10 mi
8:53 AM77 °FPartly sunny.5 mph94%30.00 "Hg10 mi
7:53 AM76 °FPassing clouds.No wind97%29.98 "Hg10 mi
6:53 AM76 °FPartly cloudy.No wind97%29.95 "Hg10 mi
5:53 AM76 °FPassing clouds.3 mph94%29.93 "Hg10 mi
4:53 AM76 °FPassing clouds.6 mph94%29.93 "Hg10 mi
3:53 AM76 °FPassing clouds.3 mph94%29.93 "Hg10 mi
2:53 AM76 °FPassing clouds.6 mph94%29.93 "Hg10 mi
1:53 AM76 °FPassing clouds.6 mph91%29.94 "Hg10 mi
12:53 AM76 °FPassing clouds.6 mph94%29.95 "Hg10 mi
11:53 PM
Sep 20
77 °FPassing clouds.6 mph90%29.95 "Hg10 mi
10:53 PM76 °FPassing clouds.6 mph94%29.94 "Hg10 mi
9:53 PM77 °FPassing clouds.6 mph90%29.93 "Hg10 mi
8:53 PM77 °FPartly cloudy.5 mph90%29.92 "Hg10 mi
7:53 PM78 °FBroken clouds.6 mph84%29.92 "Hg10 mi
6:53 PM79 °FOvercast.12 mph79%29.90 "Hg10 mi
5:53 PM81 °FBroken clouds.14 mph74%29.89 "Hg10 mi
4:53 PM81 °FBroken clouds.15 mph74%29.88 "Hg10 mi
3:53 PM79 °FLight rain. Partly sunny.15 mph84%29.87 "Hg10 mi
3:03 PM79 °FThunderstorms. Partly sunny.21 mph79%29.88 "Hg10 mi
Weather by CustomWeather, © 2014

See weather overviewHow to use our weather pages